Time,TemperatureF,DewpointF,PressureIn,WindDirection,WindDirectionDegrees,WindSpeedMPH,WindSpeedGustMPH,Humidity,HourlyPrecipIn,Conditions,Clouds,dailyrainin,SoftwareType,DateUTC
2013-04-23 00:01:00,52.5,33.3,30.18,ESE,113,0.0,0.0,48,0.00,,,0.00,WUHU216HW,2013-04-23 04:01:00,
2013-04-23 00:03:00,52.5,33.8,30.18,ESE,113,0.0,0.0,49,0.00,,,0.00,WUHU216HW,2013-04-23 04:03:00,
2013-04-23 00:08:00,52.5,33.8,30.18,SE,135,0.0,0.0,49,0.00,,,0.00,WUHU216HW,2013-04-23 04:08:00,
2013-04-23 00:13:00,52.3,33.7,30.18,SE,135,1.1,1.1,49,0.00,,,0.00,WUHU216HW,2013-04-23 04:13:00,
2013-04-23 00:18:00,52.3,34.2,30.18,ESE,113,0.0,1.1,50,0.00,,,0.00,WUHU216HW,2013-04-23 04:18:00,
2013-04-23 00:23:00,52.3,34.2,30.18,ESE,113,0.0,1.1,50,0.00,,,0.00,WUHU216HW,2013-04-23 04:23:00,
2013-04-23 00:28:00,52.3,34.2,30.18,ESE,113,0.6,0.8,50,0.00,,,0.00,WUHU216HW,2013-04-23 04:28:00,
2013-04-23 00:33:00,52.3,34.7,30.18,SE,135,0.0,0.6,51,0.00,,,0.00,WUHU216HW,2013-04-23 04:33:00,
2013-04-23 00:38:00,52.1,34.5,30.17,ESE,113,0.0,0.8,51,0.00,,,0.00,WUHU216HW,2013-04-23 04:38:00,
2013-04-23 00:43:00,52.3,34.7,30.17,ESE,113,0.0,0.8,51,0.00,,,0.00,WUHU216HW,2013-04-23 04:43:00,
2013-04-23 00:48:00,52.3,34.7,30.17,ESE,113,2.0,2.4,51,0.00,,,0.00,WUHU216HW,2013-04-23 04:48:00,
2013-04-23 00:54:00,52.3,35.1,30.17,East,90,1.7,2.4,52,0.00,,,0.00,WUHU216HW,2013-04-23 04:54:00,
2013-04-23 00:59:00,52.3,35.1,30.17,East,90,1.7,2.0,52,0.00,,,0.00,WUHU216HW,2013-04-23 04:59:00,
2013-04-23 01:04:00,52.3,35.1,30.17,ESE,113,1.1,1.7,52,0.00,,,0.00,WUHU216HW,2013-04-23 05:04:00,
2013-04-23 01:09:00,52.3,35.1,30.17,SE,135,2.4,2.4,52,0.00,,,0.00,WUHU216HW,2013-04-23 05:09:00,
2013-04-23 01:14:00,52.1,35.0,30.17,SE,135,0.0,2.4,52,0.00,,,0.00,WUHU216HW,2013-04-23 05:14:00,
2013-04-23 01:19:00,52.1,35.4,30.17,ESE,113,3.5,3.5,53,0.00,,,0.00,WUHU216HW,2013-04-23 05:19:00,
2013-04-23 01:24:00,51.9,35.3,30.17,SE,135,1.5,3.5,53,0.00,,,0.00,WUHU216HW,2013-04-23 05:24:00,
2013-04-23 01:29:00,51.9,35.3,30.17,ESE,113,0.6,3.5,53,0.00,,,0.00,WUHU216HW,2013-04-23 05:29:00,
2013-04-23 01:35:00,51.9,35.3,30.16,ESE,113,1.1,1.1,53,0.00,,,0.00,WUHU216HW,2013-04-23 05:35:00,
2013-04-23 01:40:00,51.9,35.7,30.17,ESE,113,4.9,4.9,54,0.00,,,0.00,WUHU216HW,2013-04-23 05:40:00,
2013-04-23 01:45:00,51.9,35.7,30.17,ESE,113,0.0,4.9,54,0.00,,,0.00,WUHU216HW,2013-04-23 05:45:00,
2013-04-23 01:50:00,51.9,35.7,30.16,ESE,113,0.6,4.0,54,0.00,,,0.00,WUHU216HW,2013-04-23 05:50:00,
2013-04-23 01:55:00,51.8,35.6,30.16,ESE,113,2.2,2.2,54,0.00,,,0.00,WUHU216HW,2013-04-23 05:55:00,
2013-04-23 02:00:00,51.6,35.4,30.16,ESE,113,0.0,2.2,54,0.00,,,0.00,WUHU216HW,2013-04-23 06:00:00,
2013-04-23 02:05:00,51.6,35.4,30.15,ESE,113,0.0,2.0,54,0.00,,,0.00,WUHU216HW,2013-04-23 06:05:00,
2013-04-23 02:10:00,51.4,35.7,30.15,SE,135,0.6,3.8,55,0.00,,,0.00,WUHU216HW,2013-04-23 06:10:00,
2013-04-23 02:15:00,51.2,35.5,30.15,ESE,113,2.0,3.8,55,0.00,,,0.00,WUHU216HW,2013-04-23 06:15:00,
2013-04-23 02:20:00,51.0,35.4,30.15,ESE,113,0.0,2.2,55,0.00,,,0.00,WUHU216HW,2013-04-23 06:20:00,
2013-04-23 02:26:00,50.9,35.6,30.15,SE,135,1.1,2.4,56,0.00,,,0.00,WUHU216HW,2013-04-23 06:26:00,
2013-04-23 02:31:00,50.7,35.5,30.14,ESE,113,0.0,2.4,56,0.00,,,0.00,WUHU216HW,2013-04-23 06:31:00,
2013-04-23 02:36:00,50.7,35.5,30.14,ESE,113,0.0,2.2,56,0.00,,,0.00,WUHU216HW,2013-04-23 06:36:00,
2013-04-23 02:41:00,50.5,35.8,30.14,SE,135,4.0,4.0,57,0.00,,,0.00,WUHU216HW,2013-04-23 06:41:00,
2013-04-23 02:46:00,50.3,35.6,30.13,ESE,113,4.6,4.6,57,0.00,,,0.00,WUHU216HW,2013-04-23 06:46:00,
2013-04-23 02:51:00,50.1,35.4,30.13,ESE,113,1.3,4.6,57,0.00,,,0.00,WUHU216HW,2013-04-23 06:51:00,
2013-04-23 02:56:00,50.1,35.9,30.13,SE,135,2.4,2.4,58,0.00,,,0.00,WUHU216HW,2013-04-23 06:56:00,
2013-04-23 03:01:00,49.8,35.6,30.13,SE,135,0.0,2.4,58,0.00,,,0.00,WUHU216HW,2013-04-23 07:01:00,
2013-04-23 03:06:00,49.8,36.0,30.12,SE,135,0.0,2.2,59,0.00,,,0.00,WUHU216HW,2013-04-23 07:06:00,
2013-04-23 03:12:00,49.8,36.0,30.12,SE,135,0.0,0.6,59,0.00,,,0.00,WUHU216HW,2013-04-23 07:12:00,
2013-04-23 03:17:00,49.6,36.3,30.12,ESE,113,4.4,4.4,60,0.00,,,0.00,WUHU216HW,2013-04-23 07:17:00,
2013-04-23 03:22:00,49.6,36.3,30.12,ESE,113,0.8,4.4,60,0.00,,,0.00,WUHU216HW,2013-04-23 07:22:00,
2013-04-23 03:27:00,49.6,36.3,30.12,SE,135,0.0,4.4,60,0.00,,,0.00,WUHU216HW,2013-04-23 07:27:00,
2013-04-23 03:32:00,49.6,36.3,30.11,ESE,113,0.0,2.4,60,0.00,,,0.00,WUHU216HW,2013-04-23 07:32:00,
2013-04-23 03:37:00,49.6,36.3,30.11,ESE,113,2.9,3.1,60,0.00,,,0.00,WUHU216HW,2013-04-23 07:37:00,
2013-04-23 03:42:00,49.6,36.3,30.11,ESE,113,0.8,3.1,60,0.00,,,0.00,WUHU216HW,2013-04-23 07:42:00,
2013-04-23 03:47:00,49.4,36.5,30.11,ESE,113,0.8,2.4,61,0.00,,,0.00,WUHU216HW,2013-04-23 07:47:00,
2013-04-23 03:52:00,49.2,36.4,30.10,ESE,113,2.9,2.9,61,0.00,,,0.00,WUHU216HW,2013-04-23 07:52:00,
2013-04-23 03:58:00,49.2,36.4,30.10,ESE,113,3.8,3.8,61,0.00,,,0.00,WUHU216HW,2013-04-23 07:58:00,
2013-04-23 04:03:00,49.2,36.4,30.09,ESE,113,0.0,3.8,61,0.00,,,0.00,WUHU216HW,2013-04-23 08:03:00,
2013-04-23 04:08:00,49.2,36.8,30.09,ESE,113,0.0,3.8,62,0.00,,,0.00,WUHU216HW,2013-04-23 08:08:00,
2013-04-23 04:13:00,49.2,36.8,30.08,SE,135,0.6,1.1,62,0.00,,,0.00,WUHU216HW,2013-04-23 08:13:00,
2013-04-23 04:18:00,49.2,36.8,30.08,ESE,113,0.8,1.3,62,0.00,,,0.00,WUHU216HW,2013-04-23 08:18:00,
2013-04-23 04:23:00,49.2,36.8,30.08,ESE,113,4.0,4.0,62,0.00,,,0.00,WUHU216HW,2013-04-23 08:23:00,
2013-04-23 04:28:00,49.4,36.9,30.08,ESE,113,3.5,4.0,62,0.00,,,0.00,WUHU216HW,2013-04-23 08:28:00,
2013-04-23 04:33:00,49.6,37.1,30.08,ESE,113,0.0,4.0,63,0.00,,,0.00,WUHU216HW,2013-04-23 08:33:00,
2013-04-23 04:38:00,49.8,37.2,30.08,ESE,113,0.0,2.0,62,0.00,,,0.00,WUHU216HW,2013-04-23 08:38:00,
2013-04-23 04:44:00,49.8,37.2,30.07,ESE,113,2.2,2.2,62,0.00,,,0.00,WUHU216HW,2013-04-23 08:44:00,
2013-04-23 04:49:00,50.1,37.6,30.07,ESE,113,0.0,4.4,62,0.00,,,0.00,WUHU216HW,2013-04-23 08:49:00,
2013-04-23 04:54:00,50.1,37.6,30.06,SE,135,0.0,4.4,62,0.00,,,0.00,WUHU216HW,2013-04-23 08:54:00,
2013-04-23 04:59:00,50.1,37.6,30.06,SE,135,1.3,1.3,62,0.00,,,0.00,WUHU216HW,2013-04-23 08:59:00,
2013-04-23 05:04:00,50.0,37.4,30.06,ESE,113,0.8,3.5,62,0.00,,,0.00,WUHU216HW,2013-04-23 09:04:00,
2013-04-23 05:09:00,49.8,37.2,30.07,SE,135,2.6,3.5,62,0.00,,,0.00,WUHU216HW,2013-04-23 09:09:00,
2013-04-23 05:14:00,50.0,37.4,30.07,ESE,113,3.1,3.1,62,0.00,,,0.00,WUHU216HW,2013-04-23 09:14:00,
2013-04-23 05:19:00,50.1,37.6,30.07,ESE,113,0.0,3.1,62,0.00,,,0.00,WUHU216HW,2013-04-23 09:19:00,
2013-04-23 05:24:00,50.0,37.4,30.07,ESE,113,0.0,3.1,62,0.00,,,0.00,WUHU216HW,2013-04-23 09:24:00,
2013-04-23 05:30:00,50.1,37.6,30.07,SE,135,0.0,0.0,62,0.00,,,0.00,WUHU216HW,2013-04-23 09:30:00,
2013-04-23 05:35:00,50.1,37.6,30.07,SE,135,0.0,1.3,62,0.00,,,0.00,WUHU216HW,2013-04-23 09:35:00,
2013-04-23 05:40:00,50.3,37.7,30.06,SE,135,0.0,1.3,62,0.00,,,0.00,WUHU216HW,2013-04-23 09:40:00,
2013-04-23 05:45:00,50.7,37.7,30.06,ESE,113,4.4,4.4,61,0.00,,,0.00,WUHU216HW,2013-04-23 09:45:00,
2013-04-23 05:50:00,51.0,38.0,30.07,South,180,0.0,4.4,61,0.00,,,0.00,WUHU216HW,2013-04-23 09:50:00,
2013-04-23 05:55:00,51.0,38.0,30.07,SSE,158,4.9,4.9,61,0.00,,,0.00,WUHU216HW,2013-04-23 09:55:00,
2013-04-23 06:00:00,51.6,38.5,30.07,SSW,203,4.4,4.9,61,0.00,,,0.00,WUHU216HW,2013-04-23 10:00:00,
2013-04-23 06:05:00,51.6,38.5,30.08,South,180,2.4,4.4,61,0.00,,,0.00,WUHU216HW,2013-04-23 10:05:00,
2013-04-23 06:10:00,51.6,38.9,30.07,SSE,158,3.5,11.1,62,0.00,,,0.00,WUHU216HW,2013-04-23 10:10:00,
2013-04-23 06:15:00,51.8,38.7,30.07,SSE,158,2.4,11.1,61,0.00,,,0.00,WUHU216HW,2013-04-23 10:15:00,
2013-04-23 06:21:00,51.9,38.8,30.06,SSE,158,2.0,6.2,61,0.00,,,0.00,WUHU216HW,2013-04-23 10:21:00,
2013-04-23 06:26:00,51.9,38.8,30.06,SE,135,2.4,4.9,61,0.00,,,0.00,WUHU216HW,2013-04-23 10:26:00,
2013-04-23 06:31:00,51.9,38.8,30.06,SE,135,0.0,3.8,61,0.00,,,0.00,WUHU216HW,2013-04-23 10:31:00,
2013-04-23 06:36:00,51.9,38.8,30.06,SSE,158,0.6,3.5,61,0.00,,,0.00,WUHU216HW,2013-04-23 10:36:00,
2013-04-23 06:41:00,51.6,38.5,30.05,SE,135,2.4,8.0,61,0.00,,,0.00,WUHU216HW,2013-04-23 10:41:00,
2013-04-23 06:46:00,51.6,38.5,30.05,SE,135,1.3,8.0,61,0.00,,,0.00,WUHU216HW,2013-04-23 10:46:00,
2013-04-23 06:51:00,51.6,38.9,30.06,South,180,5.8,5.8,62,0.00,,,0.00,WUHU216HW,2013-04-23 10:51:00,
2013-04-23 06:56:00,51.6,38.9,30.07,South,180,3.8,5.8,62,0.00,,,0.00,WUHU216HW,2013-04-23 10:56:00,
2013-04-23 07:02:00,51.4,38.7,30.07,South,180,0.6,5.8,62,0.00,,,0.00,WUHU216HW,2013-04-23 11:02:00,
2013-04-23 07:07:00,51.0,38.4,30.06,SE,135,0.0,4.6,62,0.00,,,0.00,WUHU216HW,2013-04-23 11:07:00,
2013-04-23 07:12:00,51.0,38.8,30.06,SE,135,0.0,3.3,63,0.00,,,0.00,WUHU216HW,2013-04-23 11:12:00,
2013-04-23 07:17:00,51.0,38.8,30.06,SSE,158,0.0,0.0,63,0.00,,,0.00,WUHU216HW,2013-04-23 11:17:00,
2013-04-23 07:22:00,51.0,38.8,30.08,SSE,158,0.0,4.0,63,0.00,,,0.00,WUHU216HW,2013-04-23 11:22:00,
2013-04-23 07:27:00,50.9,38.6,30.08,South,180,1.3,4.0,63,0.00,,,0.00,WUHU216HW,2013-04-23 11:27:00,
2013-04-23 07:32:00,50.9,38.6,30.09,South,180,3.8,3.8,63,0.00,,,0.00,WUHU216HW,2013-04-23 11:32:00,
2013-04-23 07:37:00,51.0,38.8,30.09,South,180,0.0,3.8,63,0.00,,,0.00,WUHU216HW,2013-04-23 11:37:00,
2013-04-23 07:43:00,51.0,39.2,30.08,South,180,3.1,5.3,64,0.00,,,0.00,WUHU216HW,2013-04-23 11:43:00,
2013-04-23 07:48:00,51.4,39.6,30.08,SSE,158,3.5,5.3,64,0.00,,,0.00,WUHU216HW,2013-04-23 11:48:00,
2013-04-23 07:53:00,51.4,40.0,30.08,SE,135,0.0,5.3,65,0.00,,,0.00,WUHU216HW,2013-04-23 11:53:00,
2013-04-23 07:58:00,51.0,40.0,30.08,SSE,158,0.0,5.3,66,0.00,,,0.00,WUHU216HW,2013-04-23 11:58:00,
2013-04-23 08:03:00,50.9,40.3,30.08,SE,135,0.0,2.0,67,0.00,,,0.00,WUHU216HW,2013-04-23 12:03:00,
2013-04-23 08:08:00,50.7,40.5,30.08,SSE,158,0.0,0.0,68,0.00,,,0.00,WUHU216HW,2013-04-23 12:08:00,
2013-04-23 08:13:00,50.7,40.9,30.08,SE,135,0.0,2.2,69,0.00,,,0.00,WUHU216HW,2013-04-23 12:13:00,
2013-04-23 08:18:00,50.5,40.7,30.08,SE,135,0.0,2.2,69,0.00,,,0.00,WUHU216HW,2013-04-23 12:18:00,
2013-04-23 08:23:00,50.7,40.9,30.08,ESE,113,0.0,0.0,69,0.00,,,0.00,WUHU216HW,2013-04-23 12:23:00,
2013-04-23 08:28:00,50.7,40.9,30.08,SE,135,3.5,3.5,69,0.00,,,0.00,WUHU216HW,2013-04-23 12:28:00,
2013-04-23 08:34:00,50.7,40.9,30.08,SE,135,0.0,4.2,69,0.00,,,0.00,WUHU216HW,2013-04-23 12:34:00,
2013-04-23 08:39:00,50.9,41.1,30.08,South,180,0.8,4.2,69,0.00,,,0.00,WUHU216HW,2013-04-23 12:39:00,
2013-04-23 08:44:00,51.0,41.3,30.07,SSE,158,2.0,2.0,69,0.00,,,0.00,WUHU216HW,2013-04-23 12:44:00,
2013-04-23 08:49:00,51.4,41.2,30.07,SSE,158,0.0,2.4,68,0.00,,,0.00,WUHU216HW,2013-04-23 12:49:00,
2013-04-23 08:54:00,51.6,41.4,30.08,SSE,158,0.0,2.4,68,0.00,,,0.00,WUHU216HW,2013-04-23 12:54:00,
2013-04-23 08:59:00,51.9,41.7,30.08,South,180,2.4,2.4,68,0.00,,,0.00,WUHU216HW,2013-04-23 12:59:00,
2013-04-23 09:04:00,52.1,41.9,30.07,SE,135,0.0,2.4,68,0.00,,,0.00,WUHU216HW,2013-04-23 13:04:00,
2013-04-23 09:09:00,52.3,42.0,30.07,SE,135,0.0,2.4,68,0.00,,,0.00,WUHU216HW,2013-04-23 13:09:00,
2013-04-23 09:14:00,52.8,42.6,30.07,SE,135,3.1,4.0,68,0.00,,,0.00,WUHU216HW,2013-04-23 13:14:00,
2013-04-23 09:20:00,52.8,42.1,30.07,SSE,158,1.5,4.0,67,0.00,,,0.00,WUHU216HW,2013-04-23 13:20:00,
2013-04-23 09:25:00,53.4,42.6,30.06,SE,135,7.1,7.1,67,0.00,,,0.00,WUHU216HW,2013-04-23 13:25:00,
2013-04-23 09:30:00,53.6,42.4,30.06,SE,135,4.4,7.1,66,0.00,,,0.00,WUHU216HW,2013-04-23 13:30:00,
2013-04-23 09:35:00,53.6,42.4,30.06,SE,135,4.4,4.4,66,0.00,,,0.00,WUHU216HW,2013-04-23 13:35:00,
2013-04-23 09:40:00,54.3,43.1,30.06,SE,135,4.4,4.4,66,0.00,,,0.00,WUHU216HW,2013-04-23 13:40:00,
2013-04-23 09:45:00,54.3,42.7,30.06,SE,135,4.4,4.4,65,0.00,,,0.00,WUHU216HW,2013-04-23 13:45:00,
2013-04-23 09:50:00,55.2,43.6,30.06,SE,135,1.5,4.4,65,0.00,,,0.00,WUHU216HW,2013-04-23 13:50:00,
2013-04-23 09:55:00,55.2,43.1,30.06,SSE,158,3.3,4.4,64,0.00,,,0.00,WUHU216HW,2013-04-23 13:55:00,
2013-04-23 10:01:00,55.2,43.1,30.06,SSE,158,3.3,3.3,64,0.00,,,0.00,WUHU216HW,2013-04-23 14:01:00,
2013-04-23 10:06:00,55.2,43.1,30.05,SSE,158,3.3,3.3,64,0.00,,,0.00,WUHU216HW,2013-04-23 14:06:00,
2013-04-23 10:11:00,55.2,43.1,30.05,SSE,158,3.3,3.3,64,0.00,,,0.00,WUHU216HW,2013-04-23 14:11:00,
2013-04-23 10:16:00,55.2,43.1,30.05,SSE,158,3.3,3.3,64,0.00,,,0.00,WUHU216HW,2013-04-23 14:16:00,
2013-04-23 10:46:00,58.8,45.3,30.05,South,180,1.3,1.3,61,0.00,,,0.00,WUHU216HW,2013-04-23 14:46:00,
2013-04-23 10:51:00,58.8,45.3,30.04,South,180,1.3,1.3,61,0.00,,,0.00,WUHU216HW,2013-04-23 14:51:00,
2013-04-23 10:57:00,58.8,45.3,30.04,South,180,1.3,1.3,61,0.00,,,0.00,WUHU216HW,2013-04-23 14:57:00,
2013-04-23 11:02:00,58.8,44.9,30.05,SE,135,3.1,5.8,60,0.00,,,0.00,WUHU216HW,2013-04-23 15:02:00,
2013-04-23 11:07:00,58.8,44.9,30.04,SE,135,3.1,5.8,60,0.00,,,0.00,WUHU216HW,2013-04-23 15:07:00,
2013-04-23 11:12:00,59.9,46.0,30.04,SE,135,3.1,3.1,60,0.00,,,0.00,WUHU216HW,2013-04-23 15:12:00,
2013-04-23 11:17:00,60.0,46.2,30.04,ESE,113,3.8,3.8,60,0.00,,,0.00,WUHU216HW,2013-04-23 15:17:00,
2013-04-23 11:22:00,60.4,46.5,30.04,SE,135,4.2,4.2,60,0.00,,,0.00,WUHU216HW,2013-04-23 15:22:00,
2013-04-23 11:27:00,60.6,46.2,30.03,SE,135,3.5,7.8,59,0.00,,,0.00,WUHU216HW,2013-04-23 15:27:00,
2013-04-23 11:32:00,60.6,46.2,30.03,SSE,158,10.2,11.8,59,0.00,,,0.00,WUHU216HW,2013-04-23 15:32:00,
2013-04-23 11:37:00,60.8,46.4,30.03,South,180,8.0,11.8,59,0.00,,,0.00,WUHU216HW,2013-04-23 15:37:00,
2013-04-23 11:42:00,60.9,46.6,30.03,SSE,158,5.1,8.0,59,0.00,,,0.00,WUHU216HW,2013-04-23 15:42:00,
2013-04-23 11:48:00,61.1,46.7,30.03,South,180,8.7,8.7,59,0.00,,,0.00,WUHU216HW,2013-04-23 15:48:00,
2013-04-23 11:53:00,61.5,46.9,30.03,SSE,158,5.3,8.7,59,0.00,,,0.00,WUHU216HW,2013-04-23 15:53:00,
2013-04-23 11:58:00,61.5,46.6,30.03,SSE,158,9.3,9.3,58,0.00,,,0.00,WUHU216HW,2013-04-23 15:58:00,
2013-04-23 12:03:00,61.5,47.1,30.03,SSE,158,8.7,9.3,59,0.00,,,0.00,WUHU216HW,2013-04-23 16:03:00,
2013-04-23 12:08:00,61.8,46.9,30.02,South,180,10.5,10.5,58,0.00,,,0.00,WUHU216HW,2013-04-23 16:08:00,
2013-04-23 12:13:00,62.0,46.6,30.02,South,180,8.5,10.5,57,0.00,,,0.00,WUHU216HW,2013-04-23 16:13:00,
2013-04-23 12:18:00,62.4,47.4,30.02,SSW,203,5.8,10.5,58,0.00,,,0.00,WUHU216HW,2013-04-23 16:18:00,
2013-04-23 12:24:00,62.7,47.7,30.02,SSE,158,5.1,8.5,58,0.00,,,0.00,WUHU216HW,2013-04-23 16:24:00,
2013-04-23 12:29:00,62.9,47.4,30.02,SSE,158,9.1,10.0,57,0.00,,,0.00,WUHU216HW,2013-04-23 16:29:00,
2013-04-23 12:34:00,63.1,47.2,30.02,SSW,203,11.6,11.6,56,0.00,,,0.00,WUHU216HW,2013-04-23 16:34:00,
2013-04-23 12:39:00,63.3,47.2,30.02,SSW,203,11.6,11.6,56,0.00,,,0.00,WUHU216HW,2013-04-23 16:39:00,
2013-04-23 12:44:00,63.6,47.5,30.01,SSW,203,2.4,11.6,56,0.00,,,0.00,WUHU216HW,2013-04-23 16:44:00,
2013-04-23 12:49:00,63.8,47.7,30.01,South,180,6.0,11.6,56,0.00,,,0.00,WUHU216HW,2013-04-23 16:49:00,
2013-04-23 12:54:00,64.0,47.9,30.01,South,180,10.2,10.2,56,0.00,,,0.00,WUHU216HW,2013-04-23 16:54:00,
2013-04-23 12:59:00,64.2,48.0,30.01,South,180,4.9,10.5,56,0.00,,,0.00,WUHU216HW,2013-04-23 16:59:00,
2013-04-23 13:04:00,64.4,48.2,30.00,SSW,203,2.9,10.5,56,0.00,,,0.00,WUHU216HW,2013-04-23 17:04:00,
2013-04-23 13:09:00,64.9,48.7,30.00,SSW,203,8.0,8.0,56,0.00,,,0.00,WUHU216HW,2013-04-23 17:09:00,
2013-04-23 13:15:00,65.1,48.9,30.00,SSE,158,5.8,8.0,56,0.00,,,0.00,WUHU216HW,2013-04-23 17:15:00,
2013-04-23 13:20:00,65.3,48.1,29.99,South,180,8.2,8.2,54,0.00,,,0.00,WUHU216HW,2013-04-23 17:20:00,
2013-04-23 13:25:00,65.3,48.1,29.99,South,180,8.2,8.2,54,0.00,,,0.00,WUHU216HW,2013-04-23 17:25:00,
2013-04-23 13:30:00,65.3,48.6,29.99,South,180,8.2,8.2,55,0.00,,,0.00,WUHU216HW,2013-04-23 17:30:00,
2013-04-23 13:35:00,65.1,48.4,29.99,South,180,8.2,8.2,55,0.00,,,0.00,WUHU216HW,2013-04-23 17:35:00,
2013-04-23 13:40:00,65.1,48.4,29.99,South,180,8.2,8.2,55,0.00,,,0.00,WUHU216HW,2013-04-23 17:40:00,
2013-04-23 13:45:00,65.1,48.4,29.99,South,180,8.2,8.2,55,0.00,,,0.00,WUHU216HW,2013-04-23 17:45:00,
2013-04-23 13:51:00,65.1,48.4,29.98,SSW,203,11.8,11.8,55,0.00,,,0.00,WUHU216HW,2013-04-23 17:51:00,
2013-04-23 13:56:00,65.1,48.4,29.98,SSW,203,11.8,11.8,55,0.00,,,0.00,WUHU216HW,2013-04-23 17:56:00,
2013-04-23 14:01:00,65.1,48.4,29.98,SSW,203,11.8,11.8,55,0.00,,,0.00,WUHU216HW,2013-04-23 18:01:00,
2013-04-23 14:06:00,64.9,48.2,29.98,SSW,203,11.8,11.8,55,0.00,,,0.00,WUHU216HW,2013-04-23 18:06:00,
2013-04-23 14:11:00,64.9,48.2,29.98,SSW,203,11.8,11.8,55,0.00,,,0.00,WUHU216HW,2013-04-23 18:11:00,
2013-04-23 14:15:00,61.8,45.4,29.98,SSW,203,11.8,11.8,55,0.00,,,0.00,WUHU216HW,2013-04-23 18:15:00,
2013-04-23 14:22:00,60.0,45.7,29.98,WSW,248,0.0,11.8,59,0.00,,,0.00,WUHU216HW,2013-04-23 18:22:00,
2013-04-23 14:34:00,60.0,45.7,29.99,WSW,248,0.0,0.0,59,0.00,,,0.00,WUHU216HW,2013-04-23 18:34:00,
2013-04-23 14:39:00,57.9,45.7,29.98,West,270,6.2,6.2,64,0.00,,,0.00,WUHU216HW,2013-04-23 18:39:00,
2013-04-23 14:44:00,57.7,46.4,30.00,West,270,6.2,6.2,66,0.00,,,0.00,WUHU216HW,2013-04-23 18:44:00,
2013-04-23 14:49:00,55.9,45.9,30.00,WNW,293,0.8,6.2,69,0.02,,,0.02,WUHU216HW,2013-04-23 18:49:00,
2013-04-23 14:54:00,55.0,46.1,30.01,WSW,248,1.1,6.7,72,0.04,,,0.04,WUHU216HW,2013-04-23 18:54:00,
2013-04-23 14:59:00,54.3,46.1,29.99,West,270,2.0,6.7,74,0.06,,,0.06,WUHU216HW,2013-04-23 18:59:00,
2013-04-23 15:04:00,53.9,46.2,30.00,WNW,293,6.4,6.4,75,0.08,,,0.06,WUHU216HW,2013-04-23 19:04:00,
2013-04-23 15:09:00,52.8,45.5,30.00,West,270,3.3,6.4,76,0.08,,,0.08,WUHU216HW,2013-04-23 19:09:00,
2013-04-23 15:14:00,52.7,45.3,30.00,West,270,3.1,4.9,76,0.08,,,0.08,WUHU216HW,2013-04-23 19:14:00,
2013-04-23 15:20:00,51.8,45.1,30.00,West,270,3.1,3.1,78,0.08,,,0.08,WUHU216HW,2013-04-23 19:20:00,
2013-04-23 15:25:00,51.6,45.3,30.01,West,270,4.2,4.2,79,0.10,,,0.10,WUHU216HW,2013-04-23 19:25:00,
2013-04-23 15:30:00,51.4,45.8,30.01,West,270,4.4,4.4,81,0.10,,,0.10,WUHU216HW,2013-04-23 19:30:00,
2013-04-23 15:35:00,51.4,45.8,30.01,West,270,4.4,4.4,81,0.12,,,0.12,WUHU216HW,2013-04-23 19:35:00,
2013-04-23 15:40:00,50.9,45.2,30.01,West,270,4.9,4.9,81,0.12,,,0.12,WUHU216HW,2013-04-23 19:40:00,
2013-04-23 15:45:00,50.7,45.3,30.01,West,270,4.9,4.9,82,0.12,,,0.12,WUHU216HW,2013-04-23 19:45:00,
2013-04-23 15:50:00,50.3,45.3,30.00,West,270,4.9,4.9,82,0.08,,,0.12,WUHU216HW,2013-04-23 19:50:00,
2013-04-23 15:55:00,50.3,45.0,29.99,West,270,0.8,4.9,82,0.06,,,0.12,WUHU216HW,2013-04-23 19:55:00,
2013-04-23 16:00:00,50.3,45.0,29.99,West,270,0.8,4.9,82,0.06,,,0.12,WUHU216HW,2013-04-23 20:00:00,
2013-04-23 16:05:00,50.3,45.0,29.99,West,270,0.8,0.8,82,0.06,,,0.12,WUHU216HW,2013-04-23 20:05:00,
2013-04-23 16:11:00,50.3,45.0,29.99,West,270,0.8,0.8,82,0.04,,,0.12,WUHU216HW,2013-04-23 20:11:00,
2013-04-23 16:16:00,50.3,45.0,29.99,West,270,0.8,0.8,82,0.04,,,0.12,WUHU216HW,2013-04-23 20:16:00,
2013-04-23 16:21:00,50.5,45.0,29.99,West,270,0.8,0.8,82,0.06,,,0.12,WUHU216HW,2013-04-23 20:21:00,
2013-04-23 16:26:00,50.5,45.2,29.99,SSW,203,0.0,0.8,82,0.08,,,0.16,WUHU216HW,2013-04-23 20:26:00,
2013-04-23 16:31:00,50.5,45.2,29.98,SSW,203,0.0,0.8,82,0.08,,,0.16,WUHU216HW,2013-04-23 20:31:00,
2013-04-23 16:36:00,50.7,45.3,29.98,SSW,203,0.0,0.0,82,0.06,,,0.16,WUHU216HW,2013-04-23 20:36:00,
2013-04-23 16:41:00,50.7,45.3,29.98,SSW,203,0.0,0.0,82,0.04,,,0.16,WUHU216HW,2013-04-23 20:41:00,
2013-04-23 16:46:00,50.7,45.6,29.98,West,270,0.0,0.0,83,0.06,,,0.16,WUHU216HW,2013-04-23 20:46:00,
2013-04-23 16:51:00,51.4,46.1,29.98,West,270,0.0,0.0,82,0.06,,,0.18,WUHU216HW,2013-04-23 20:51:00,
2013-04-23 16:56:00,51.4,46.1,29.98,NW,315,1.7,1.7,82,0.06,,,0.18,WUHU216HW,2013-04-23 20:56:00,
2013-04-23 17:02:00,51.4,46.1,29.98,NW,315,1.7,1.7,82,0.06,,,0.18,WUHU216HW,2013-04-23 21:02:00,
2013-04-23 17:07:00,51.4,46.1,29.99,NW,315,1.7,1.7,82,0.06,,,0.18,WUHU216HW,2013-04-23 21:07:00,
2013-04-23 17:12:00,51.4,46.1,29.98,NW,315,1.7,1.7,82,0.06,,,0.18,WUHU216HW,2013-04-23 21:12:00,
2013-04-23 17:17:00,48.0,42.4,29.99,North,0,17.2,17.2,81,0.04,,,0.18,WUHU216HW,2013-04-23 21:17:00,
2013-04-23 17:22:00,47.6,42.0,29.98,NNW,338,7.1,17.2,81,0.04,,,0.18,WUHU216HW,2013-04-23 21:22:00,
2013-04-23 17:27:00,47.6,42.0,29.98,NNW,338,7.1,17.2,81,0.02,,,0.18,WUHU216HW,2013-04-23 21:27:00,
2013-04-23 17:32:00,47.6,42.0,29.99,NNW,338,7.1,7.1,81,0.02,,,0.18,WUHU216HW,2013-04-23 21:32:00,
2013-04-23 17:37:00,47.6,42.0,29.99,NNW,338,7.1,7.1,81,0.02,,,0.18,WUHU216HW,2013-04-23 21:37:00,
2013-04-23 18:22:00,42.6,37.4,30.01,North,0,18.3,18.3,82,0.00,,,0.18,WUHU216HW,2013-04-23 22:22:00,
2013-04-23 18:27:00,42.4,37.2,30.00,NNW,338,9.6,18.3,82,0.00,,,0.18,WUHU216HW,2013-04-23 22:27:00,
2013-04-23 18:32:00,42.0,36.9,30.00,North,0,5.8,18.3,82,0.02,,,0.20,WUHU216HW,2013-04-23 22:32:00,
2013-04-23 18:37:00,42.0,37.2,30.00,North,0,1.3,9.6,83,0.06,,,0.20,WUHU216HW,2013-04-23 22:37:00,
2013-04-23 18:43:00,42.0,37.2,30.00,North,0,3.1,7.1,83,0.06,,,0.24,WUHU216HW,2013-04-23 22:43:00,
2013-04-23 18:48:00,42.0,37.2,30.00,NNW,338,1.1,3.8,83,0.06,,,0.24,WUHU216HW,2013-04-23 22:48:00,
2013-04-23 18:53:00,41.9,37.0,30.00,NNW,338,13.6,13.6,83,0.06,,,0.24,WUHU216HW,2013-04-23 22:53:00,
2013-04-23 18:58:00,41.7,36.8,30.01,North,0,0.0,13.6,83,0.06,,,0.24,WUHU216HW,2013-04-23 22:58:00,
2013-04-23 19:03:00,41.7,36.8,30.01,North,0,0.0,13.6,83,0.06,,,0.24,WUHU216HW,2013-04-23 23:03:00,